Location: Cumbre Roja
(10.2766°N, 67.0675°W)
Time: 22:36:43
(UTC+00:00)

COSMO-SKYMED 1 - Pass Details

Date: 18 November 2025
Orbit: 579 x 581 km, 97.9° (Epoch: 14 December)

Event Time Altitude Azimuth Distance (km) Brightness Sun altitude
Rises 22:21:21 0° 15° (NNE) 2,783 5.6 -5.2°
Reaches altitude 10° 22:23:30 10° 17° (NNE) 1,885 4.7 -5.7°
Maximum altitude 22:27:34 72° 101° (ESE) 608 2.4 -6.7°
Drops below altitude 10° 22:31:39 10° 186° (S) 1,886 5.4 -7.6°
Sets 22:33:48 0° 188° (S) 2,784 6.3 -8.1°
